"Time","Value","Approval","myLocation"
"2023-09-13 14:00",9.8,"Working","OW432"
"2023-09-13 18:00",11.892,"Working","OW432"
"2023-09-13 19:00",11.896,"Working","OW432"
"2023-09-13 20:00",11.898,"Working","OW432"
"2023-09-13 21:00",11.899,"Working","OW432"
"2023-09-13 22:00",11.899,"Working","OW432"
"2023-09-13 23:00",11.896,"Working","OW432"
"2023-09-14 00:00",11.892,"Working","OW432"
"2023-09-14 01:00",11.887,"Working","OW432"
"2023-09-14 02:00",11.887,"Working","OW432"
"2023-09-14 03:00",11.886,"Working","OW432"
"2023-09-14 04:00",11.884,"Working","OW432"
"2023-09-14 05:00",11.887,"Working","OW432"
"2023-09-14 06:00",11.89,"Working","OW432"
"2023-09-14 07:00",11.892,"Working","OW432"
"2023-09-14 08:00",11.892,"Working","OW432"
"2023-09-14 09:00",11.891,"Working","OW432"
"2023-09-14 10:00",11.887,"Working","OW432"
"2023-09-14 11:00",11.885,"Working","OW432"
"2023-09-14 12:00",11.881,"Working","OW432"
"2023-09-14 13:00",11.878,"Working","OW432"
"2023-09-14 14:00",11.875,"Working","OW432"
"2023-09-14 15:00",11.874,"Working","OW432"
"2023-09-14 16:00",11.878,"Working","OW432"
"2023-09-14 17:00",11.883,"Working","OW432"
"2023-09-14 18:00",11.89,"Working","OW432"
"2023-09-14 19:00",11.898,"Working","OW432"
"2023-09-14 20:00",11.907,"Working","OW432"
"2023-09-14 21:00",11.911,"Working","OW432"
"2023-09-14 22:00",11.914,"Working","OW432"
"2023-09-14 23:00",11.914,"Working","OW432"
"2023-09-15 00:00",11.913,"Working","OW432"
"2023-09-15 01:00",11.91,"Working","OW432"
"2023-09-15 02:00",11.909,"Working","OW432"
"2023-09-15 03:00",11.909,"Working","OW432"
"2023-09-15 04:00",11.91,"Working","OW432"
"2023-09-15 05:00",11.913,"Working","OW432"
"2023-09-15 06:00",11.917,"Working","OW432"
"2023-09-15 07:00",11.922,"Working","OW432"
"2023-09-15 08:00",11.927,"Working","OW432"
"2023-09-15 09:00",11.928,"Working","OW432"
"2023-09-15 10:00",11.927,"Working","OW432"
"2023-09-15 11:00",11.927,"Working","OW432"
"2023-09-15 12:00",11.922,"Working","OW432"
"2023-09-15 13:00",11.919,"Working","OW432"
"2023-09-15 14:00",11.915,"Working","OW432"
"2023-09-15 15:00",11.915,"Working","OW432"
"2023-09-15 16:00",11.916,"Working","OW432"
"2023-09-15 17:00",11.915,"Working","OW432"
"2023-09-15 18:00",11.924,"Working","OW432"
"2023-09-15 19:00",11.931,"Working","OW432"
"2023-09-15 20:00",11.939,"Working","OW432"
"2023-09-15 21:00",11.945,"Working","OW432"
"2023-09-15 22:00",11.947,"Working","OW432"
"2023-09-15 23:00",11.947,"Working","OW432"
"2023-09-16 00:00",11.945,"Working","OW432"
"2023-09-16 01:00",11.943,"Working","OW432"
"2023-09-16 02:00",11.937,"Working","OW432"
"2023-09-16 03:00",11.934,"Working","OW432"
"2023-09-16 04:00",11.93,"Working","OW432"
"2023-09-16 05:00",11.934,"Working","OW432"
"2023-09-16 06:00",11.939,"Working","OW432"
"2023-09-16 07:00",11.944,"Working","OW432"
"2023-09-16 08:00",11.945,"Working","OW432"
"2023-09-16 09:00",11.947,"Working","OW432"
"2023-09-16 10:00",11.946,"Working","OW432"
"2023-09-16 11:00",11.943,"Working","OW432"
"2023-09-16 12:00",11.938,"Working","OW432"
"2023-09-16 13:00",11.935,"Working","OW432"
"2023-09-16 14:00",11.931,"Working","OW432"
"2023-09-16 15:00",11.927,"Working","OW432"
"2023-09-16 16:00",11.926,"Working","OW432"
"2023-09-16 17:00",11.93,"Working","OW432"
"2023-09-16 18:00",11.937,"Working","OW432"
"2023-09-16 19:00",11.944,"Working","OW432"
"2023-09-16 20:00",11.951,"Working","OW432"
"2023-09-16 21:00",11.955,"Working","OW432"
"2023-09-16 22:00",11.954,"Working","OW432"
"2023-09-16 23:00",11.953,"Working","OW432"
"2023-09-17 00:00",11.951,"Working","OW432"
"2023-09-17 01:00",11.947,"Working","OW432"
"2023-09-17 02:00",11.941,"Working","OW432"
"2023-09-17 03:00",11.933,"Working","OW432"
"2023-09-17 04:00",11.931,"Working","OW432"
"2023-09-17 05:00",11.934,"Working","OW432"
"2023-09-17 06:00",11.932,"Working","OW432"
"2023-09-17 07:00",11.937,"Working","OW432"
"2023-09-17 08:00",11.937,"Working","OW432"
"2023-09-17 09:00",11.94,"Working","OW432"
"2023-09-17 10:00",11.939,"Working","OW432"
"2023-09-17 11:00",11.938,"Working","OW432"
"2023-09-17 12:00",11.934,"Working","OW432"
"2023-09-17 13:00",11.928,"Working","OW432"
"2023-09-17 14:00",11.921,"Working","OW432"
"2023-09-17 15:00",11.913,"Working","OW432"
"2023-09-17 16:00",11.912,"Working","OW432"
"2023-09-17 17:00",11.912,"Working","OW432"
"2023-09-17 18:00",11.914,"Working","OW432"
"2023-09-17 19:00",11.918,"Working","OW432"
"2023-09-17 20:00",11.921,"Working","OW432"
"2023-09-17 21:00",11.926,"Working","OW432"
"2023-09-17 22:00",11.929,"Working","OW432"
"2023-09-17 23:00",11.93,"Working","OW432"
"2023-09-18 00:00",11.933,"Working","OW432"
"2023-09-18 01:00",11.934,"Working","OW432"
"2023-09-18 02:00",11.93,"Working","OW432"
"2023-09-18 03:00",11.932,"Working","OW432"
"2023-09-18 04:00",11.933,"Working","OW432"
"2023-09-18 05:00",11.939,"Working","OW432"
"2023-09-18 06:00",11.942,"Working","OW432"
"2023-09-18 07:00",11.94,"Working","OW432"
"2023-09-18 08:00",11.942,"Working","OW432"
"2023-09-18 09:00",11.94,"Working","OW432"
"2023-09-18 10:00",11.938,"Working","OW432"
"2023-09-18 11:00",11.935,"Working","OW432"
"2023-09-18 12:00",11.929,"Working","OW432"
"2023-09-18 13:00",11.923,"Working","OW432"
"2023-09-18 14:00",11.917,"Working","OW432"
"2023-09-18 15:00",11.907,"Working","OW432"
"2023-09-18 16:00",11.904,"Working","OW432"
"2023-09-18 17:00",11.903,"Working","OW432"
"2023-09-18 18:00",11.904,"Working","OW432"
"2023-09-18 19:00",11.906,"Working","OW432"
"2023-09-18 20:00",11.91,"Working","OW432"
"2023-09-18 21:00",11.912,"Working","OW432"
"2023-09-18 22:00",11.911,"Working","OW432"
"2023-09-18 23:00",11.909,"Working","OW432"
"2023-09-19 00:00",11.908,"Working","OW432"
"2023-09-19 01:00",11.906,"Working","OW432"
"2023-09-19 02:00",11.902,"Working","OW432"
"2023-09-19 03:00",11.9,"Working","OW432"
"2023-09-19 04:00",11.896,"Working","OW432"
"2023-09-19 05:00",11.9,"Working","OW432"
"2023-09-19 06:00",11.899,"Working","OW432"
"2023-09-19 07:00",11.905,"Working","OW432"
"2023-09-19 08:00",11.905,"Working","OW432"
"2023-09-19 09:00",11.911,"Working","OW432"
"2023-09-19 10:00",11.912,"Working","OW432"
"2023-09-19 11:00",11.916,"Working","OW432"
"2023-09-19 12:00",11.916,"Working","OW432"
"2023-09-19 13:00",11.909,"Working","OW432"
"2023-09-19 14:00",11.905,"Working","OW432"
"2023-09-19 15:00",11.903,"Working","OW432"
"2023-09-19 16:00",11.901,"Working","OW432"
"2023-09-19 17:00",11.9,"Working","OW432"
"2023-09-19 18:00",11.902,"Working","OW432"
"2023-09-19 19:00",11.904,"Working","OW432"
"2023-09-19 20:00",11.909,"Working","OW432"
"2023-09-19 21:00",11.92,"Working","OW432"
"2023-09-19 22:00",11.923,"Working","OW432"
"2023-09-19 23:00",11.924,"Working","OW432"
"2023-09-20 00:00",11.925,"Working","OW432"
"2023-09-20 01:00",11.929,"Working","OW432"
"2023-09-20 02:00",11.928,"Working","OW432"
"2023-09-20 03:00",11.924,"Working","OW432"
"2023-09-20 04:00",11.921,"Working","OW432"
"2023-09-20 05:00",11.92,"Working","OW432"
"2023-09-20 06:00",11.913,"Working","OW432"
"2023-09-20 07:00",11.909,"Working","OW432"
"2023-09-20 08:00",11.915,"Working","OW432"
"2023-09-20 09:00",11.917,"Working","OW432"
"2023-09-20 10:00",11.917,"Working","OW432"
"2023-09-20 11:00",11.918,"Working","OW432"
"2023-09-20 12:00",11.911,"Working","OW432"
"2023-09-20 13:00",11.907,"Working","OW432"
"2023-09-20 14:00",11.898,"Working","OW432"
"2023-09-20 15:00",11.89,"Working","OW432"
"2023-09-20 16:00",11.884,"Working","OW432"
"2023-09-20 17:00",11.882,"Working","OW432"
"2023-09-20 18:00",11.88,"Working","OW432"
"2023-09-20 19:00",11.878,"Working","OW432"
"2023-09-20 20:00",11.881,"Working","OW432"
"2023-09-20 21:00",11.883,"Working","OW432"
"2023-09-20 22:00",11.885,"Working","OW432"
"2023-09-20 23:00",11.884,"Working","OW432"
"2023-09-21 00:00",11.884,"Working","OW432"
"2023-09-21 01:00",11.879,"Working","OW432"
"2023-09-21 02:00",11.875,"Working","OW432"
"2023-09-21 03:00",11.868,"Working","OW432"
"2023-09-21 04:00",11.864,"Working","OW432"
"2023-09-21 05:00",11.861,"Working","OW432"
"2023-09-21 06:00",11.862,"Working","OW432"
"2023-09-21 07:00",11.864,"Working","OW432"
"2023-09-21 08:00",11.861,"Working","OW432"
"2023-09-21 09:00",11.863,"Working","OW432"
"2023-09-21 10:00",11.867,"Working","OW432"
"2023-09-21 11:00",11.868,"Working","OW432"
"2023-09-21 12:00",11.868,"Working","OW432"
"2023-09-21 13:00",11.866,"Working","OW432"
"2023-09-21 14:00",11.863,"Working","OW432"
"2023-09-21 15:00",11.86,"Working","OW432"
"2023-09-21 16:00",11.86,"Working","OW432"
"2023-09-21 17:00",11.859,"Working","OW432"
"2023-09-21 18:00",11.858,"Working","OW432"
"2023-09-21 19:00",11.858,"Working","OW432"
"2023-09-21 20:00",11.86,"Working","OW432"
"2023-09-21 21:00",11.863,"Working","OW432"
"2023-09-21 22:00",11.868,"Working","OW432"
"2023-09-21 23:00",11.874,"Working","OW432"
"2023-09-22 00:00",11.878,"Working","OW432"
"2023-09-22 01:00",11.88,"Working","OW432"
"2023-09-22 02:00",11.877,"Working","OW432"
"2023-09-22 03:00",11.875,"Working","OW432"
"2023-09-22 04:00",11.875,"Working","OW432"
"2023-09-22 05:00",11.871,"Working","OW432"
"2023-09-22 06:00",11.87,"Working","OW432"
"2023-09-22 07:00",11.87,"Working","OW432"
"2023-09-22 08:00",11.87,"Working","OW432"
"2023-09-22 09:00",11.874,"Working","OW432"
"2023-09-22 10:00",11.879,"Working","OW432"
"2023-09-22 11:00",11.88,"Working","OW432"
"2023-09-22 12:00",11.881,"Working","OW432"
"2023-09-22 13:00",11.885,"Working","OW432"
"2023-09-22 14:00",11.885,"Working","OW432"
"2023-09-22 15:00",11.881,"Working","OW432"
"2023-09-22 16:00",11.88,"Working","OW432"
"2023-09-22 17:00",11.881,"Working","OW432"
"2023-09-22 18:00",11.88,"Working","OW432"
"2023-09-22 19:00",11.884,"Working","OW432"
"2023-09-22 20:00",11.886,"Working","OW432"
"2023-09-22 21:00",11.887,"Working","OW432"
"2023-09-22 22:00",11.89,"Working","OW432"
"2023-09-22 23:00",11.894,"Working","OW432"
"2023-09-23 00:00",11.897,"Working","OW432"
"2023-09-23 01:00",11.889,"Working","OW432"
"2023-09-23 02:00",11.889,"Working","OW432"
"2023-09-23 03:00",11.886,"Working","OW432"
"2023-09-23 04:00",11.888,"Working","OW432"
"2023-09-23 05:00",11.89,"Working","OW432"
"2023-09-23 06:00",11.889,"Working","OW432"
"2023-09-23 07:00",11.89,"Working","OW432"
"2023-09-23 08:00",11.894,"Working","OW432"
"2023-09-23 09:00",11.896,"Working","OW432"
"2023-09-23 10:00",11.901,"Working","OW432"
"2023-09-23 11:00",11.905,"Working","OW432"
"2023-09-23 12:00",11.907,"Working","OW432"
"2023-09-23 13:00",11.909,"Working","OW432"
"2023-09-23 14:00",11.909,"Working","OW432"
"2023-09-23 15:00",11.91,"Working","OW432"
"2023-09-23 16:00",11.912,"Working","OW432"
"2023-09-23 17:00",11.911,"Working","OW432"
"2023-09-23 18:00",11.902,"Working","OW432"
"2023-09-23 19:00",11.894,"Working","OW432"
"2023-09-23 20:00",11.891,"Working","OW432"
"2023-09-23 21:00",11.886,"Working","OW432"
"2023-09-23 22:00",11.884,"Working","OW432"
"2023-09-23 23:00",11.878,"Working","OW432"
"2023-09-24 00:00",11.872,"Working","OW432"
"2023-09-24 01:00",11.872,"Working","OW432"
"2023-09-24 02:00",11.869,"Working","OW432"
"2023-09-24 03:00",11.867,"Working","OW432"
"2023-09-24 04:00",11.864,"Working","OW432"
"2023-09-24 05:00",11.866,"Working","OW432"
"2023-09-24 06:00",11.864,"Working","OW432"
"2023-09-24 07:00",11.86,"Working","OW432"
"2023-09-24 08:00",11.856,"Working","OW432"
"2023-09-24 09:00",11.854,"Working","OW432"
"2023-09-24 10:00",11.853,"Working","OW432"
"2023-09-24 11:00",11.855,"Working","OW432"
"2023-09-24 12:00",11.856,"Working","OW432"
"2023-09-24 13:00",11.859,"Working","OW432"
"2023-09-24 14:00",11.861,"Working","OW432"
"2023-09-24 15:00",11.867,"Working","OW432"
"2023-09-24 16:00",11.864,"Working","OW432"
"2023-09-24 17:00",11.877,"Working","OW432"
"2023-09-24 18:00",11.881,"Working","OW432"
"2023-09-24 19:00",11.883,"Working","OW432"
"2023-09-24 20:00",11.882,"Working","OW432"
"2023-09-24 21:00",11.886,"Working","OW432"
"2023-09-24 22:00",11.887,"Working","OW432"
"2023-09-24 23:00",11.882,"Working","OW432"
"2023-09-25 00:00",11.884,"Working","OW432"
"2023-09-25 01:00",11.887,"Working","OW432"
"2023-09-25 02:00",11.893,"Working","OW432"
"2023-09-25 03:00",11.861,"Working","OW432"
"2023-09-25 04:00",11.862,"Working","OW432"
"2023-09-25 05:00",11.857,"Working","OW432"
"2023-09-25 06:00",11.855,"Working","OW432"
"2023-09-25 07:00",11.855,"Working","OW432"
"2023-09-25 08:00",11.842,"Working","OW432"
"2023-09-25 09:00",11.829,"Working","OW432"
"2023-09-25 10:00",11.835,"Working","OW432"
"2023-09-25 11:00",11.831,"Working","OW432"
"2023-09-25 12:00",11.831,"Working","OW432"
"2023-09-25 13:00",11.829,"Working","OW432"
"2023-09-25 14:00",11.834,"Working","OW432"
"2023-09-25 15:00",11.839,"Working","OW432"
"2023-09-25 16:00",11.845,"Working","OW432"
"2023-09-25 17:00",11.846,"Working","OW432"
"2023-09-25 18:00",11.85,"Working","OW432"
"2023-09-25 19:00",11.845,"Working","OW432"
"2023-09-25 20:00",11.846,"Working","OW432"
"2023-09-25 21:00",11.831,"Working","OW432"
"2023-09-25 22:00",11.834,"Working","OW432"
"2023-09-25 23:00",11.828,"Working","OW432"
"2023-09-26 00:00",11.826,"Working","OW432"
"2023-09-26 01:00",11.823,"Working","OW432"
"2023-09-26 02:00",11.822,"Working","OW432"
"2023-09-26 03:00",11.816,"Working","OW432"
"2023-09-26 04:00",11.812,"Working","OW432"
"2023-09-26 05:00",11.811,"Working","OW432"
"2023-09-26 06:00",11.809,"Working","OW432"
"2023-09-26 07:00",11.809,"Working","OW432"
"2023-09-26 08:00",11.804,"Working","OW432"
"2023-09-26 09:00",11.804,"Working","OW432"
"2023-09-26 10:00",11.801,"Working","OW432"
"2023-09-26 11:00",11.796,"Working","OW432"
"2023-09-26 12:00",11.792,"Working","OW432"
"2023-09-26 13:00",11.79,"Working","OW432"
"2023-09-26 14:00",11.79,"Working","OW432"
"2023-09-26 15:00",11.791,"Working","OW432"
"2023-09-26 16:00",11.795,"Working","OW432"
"2023-09-26 17:00",11.796,"Working","OW432"
"2023-09-26 18:00",11.799,"Working","OW432"
"2023-09-26 19:00",11.79,"Working","OW432"
"2023-09-26 20:00",11.792,"Working","OW432"
"2023-09-26 21:00",11.79,"Working","OW432"
"2023-09-26 22:00",11.778,"Working","OW432"
"2023-09-26 23:00",11.774,"Working","OW432"
"2023-09-27 00:00",11.768,"Working","OW432"
"2023-09-27 01:00",11.76,"Working","OW432"
"2023-09-27 02:00",11.751,"Working","OW432"
"2023-09-27 03:00",11.755,"Working","OW432"
"2023-09-27 04:00",11.76,"Working","OW432"
"2023-09-27 05:00",11.765,"Working","OW432"
"2023-09-27 06:00",11.767,"Working","OW432"
"2023-09-27 07:00",11.768,"Working","OW432"
"2023-09-27 08:00",11.77,"Working","OW432"
"2023-09-27 09:00",11.769,"Working","OW432"
"2023-09-27 10:00",11.77,"Working","OW432"
"2023-09-27 11:00",11.765,"Working","OW432"
"2023-09-27 12:00",11.76,"Working","OW432"
"2023-09-27 13:00",11.755,"Working","OW432"
"2023-09-27 14:00",11.753,"Working","OW432"
"2023-09-27 15:00",11.75,"Working","OW432"
"2023-09-27 16:00",11.751,"Working","OW432"
"2023-09-27 17:00",11.754,"Working","OW432"
"2023-09-27 18:00",11.755,"Working","OW432"
"2023-09-27 19:00",11.755,"Working","OW432"
"2023-09-27 20:00",11.751,"Working","OW432"
"2023-09-27 21:00",11.745,"Working","OW432"
"2023-09-27 22:00",11.738,"Working","OW432"
"2023-09-27 23:00",11.731,"Working","OW432"
"2023-09-28 00:00",11.722,"Working","OW432"
"2023-09-28 01:00",11.716,"Working","OW432"
"2023-09-28 02:00",11.712,"Working","OW432"
"2023-09-28 03:00",11.712,"Working","OW432"
"2023-09-28 04:00",11.713,"Working","OW432"
"2023-09-28 05:00",11.715,"Working","OW432"
"2023-09-28 06:00",11.716,"Working","OW432"
"2023-09-28 07:00",11.719,"Working","OW432"
"2023-09-28 08:00",11.716,"Working","OW432"
"2023-09-28 09:00",11.713,"Working","OW432"
"2023-09-28 10:00",11.709,"Working","OW432"
"2023-09-28 11:00",11.702,"Working","OW432"
"2023-09-28 12:00",11.698,"Working","OW432"
"2023-09-28 13:00",11.696,"Working","OW432"
"2023-09-28 14:00",11.694,"Working","OW432"
"2023-09-28 15:00",11.695,"Working","OW432"
"2023-09-28 16:00",11.699,"Working","OW432"
"2023-09-28 17:00",11.705,"Working","OW432"
"2023-09-28 18:00",11.709,"Working","OW432"
"2023-09-28 19:00",11.711,"Working","OW432"
"2023-09-28 20:00",11.711,"Working","OW432"
"2023-09-28 21:00",11.71,"Working","OW432"
"2023-09-28 22:00",11.706,"Working","OW432"
"2023-09-28 23:00",11.702,"Working","OW432"
"2023-09-29 00:00",11.694,"Working","OW432"
"2023-09-29 01:00",11.687,"Working","OW432"
"2023-09-29 02:00",11.68,"Working","OW432"
"2023-09-29 03:00",11.681,"Working","OW432"
"2023-09-29 04:00",11.681,"Working","OW432"
"2023-09-29 05:00",11.683,"Working","OW432"
"2023-09-29 06:00",11.688,"Working","OW432"
"2023-09-29 07:00",11.692,"Working","OW432"
"2023-09-29 08:00",11.692,"Working","OW432"
"2023-09-29 09:00",11.687,"Working","OW432"
"2023-09-29 10:00",11.683,"Working","OW432"
"2023-09-29 11:00",11.676,"Working","OW432"
"2023-09-29 12:00",11.669,"Working","OW432"
"2023-09-29 13:00",11.662,"Working","OW432"
"2023-09-29 14:00",11.659,"Working","OW432"
"2023-09-29 15:00",11.658,"Working","OW432"
"2023-09-29 16:00",11.66,"Working","OW432"
"2023-09-29 17:00",11.664,"Working","OW432"
"2023-09-29 18:00",11.67,"Working","OW432"
"2023-09-29 19:00",11.675,"Working","OW432"
"2023-09-29 20:00",11.68,"Working","OW432"
"2023-09-29 21:00",11.683,"Working","OW432"
"2023-09-29 22:00",11.685,"Working","OW432"
"2023-09-29 23:00",11.684,"Working","OW432"
"2023-09-30 00:00",11.678,"Working","OW432"
"2023-09-30 01:00",11.673,"Working","OW432"
"2023-09-30 02:00",11.667,"Working","OW432"
"2023-09-30 03:00",11.663,"Working","OW432"
"2023-09-30 04:00",11.662,"Working","OW432"
"2023-09-30 05:00",11.665,"Working","OW432"
"2023-09-30 06:00",11.668,"Working","OW432"
"2023-09-30 07:00",11.671,"Working","OW432"
"2023-09-30 08:00",11.675,"Working","OW432"
"2023-09-30 09:00",11.674,"Working","OW432"
"2023-09-30 10:00",11.671,"Working","OW432"
"2023-09-30 11:00",11.665,"Working","OW432"
"2023-09-30 12:00",11.659,"Working","OW432"
"2023-09-30 13:00",11.65,"Working","OW432"
"2023-09-30 14:00",11.642,"Working","OW432"
"2023-09-30 15:00",11.635,"Working","OW432"
"2023-09-30 16:00",11.632,"Working","OW432"
"2023-09-30 17:00",11.636,"Working","OW432"
"2023-09-30 18:00",11.641,"Working","OW432"
"2023-09-30 19:00",11.645,"Working","OW432"
"2023-09-30 20:00",11.648,"Working","OW432"
"2023-09-30 21:00",11.653,"Working","OW432"
"2023-09-30 22:00",11.649,"Working","OW432"
"2023-09-30 23:00",11.646,"Working","OW432"
"2023-10-01 00:00",11.641,"Working","OW432"
"2023-10-01 01:00",11.634,"Working","OW432"
"2023-10-01 02:00",11.627,"Working","OW432"
"2023-10-01 03:00",11.622,"Working","OW432"
"2023-10-01 04:00",11.619,"Working","OW432"
"2023-10-01 05:00",11.617,"Working","OW432"
"2023-10-01 06:00",11.62,"Working","OW432"
"2023-10-01 07:00",11.623,"Working","OW432"
"2023-10-01 08:00",11.627,"Working","OW432"
"2023-10-01 09:00",11.623,"Working","OW432"
"2023-10-01 10:00",11.624,"Working","OW432"
"2023-10-01 11:00",11.62,"Working","OW432"
"2023-10-01 12:00",11.615,"Working","OW432"
"2023-10-01 13:00",11.608,"Working","OW432"
"2023-10-01 14:00",11.598,"Working","OW432"
"2023-10-01 15:00",11.592,"Working","OW432"
"2023-10-01 16:00",11.591,"Working","OW432"
"2023-10-01 17:00",11.593,"Working","OW432"
"2023-10-01 18:00",11.596,"Working","OW432"
"2023-10-01 19:00",11.604,"Working","OW432"
"2023-10-01 20:00",11.612,"Working","OW432"
"2023-10-01 21:00",11.619,"Working","OW432"
"2023-10-01 22:00",11.622,"Working","OW432"
"2023-10-01 23:00",11.622,"Working","OW432"
"2023-10-02 00:00",11.618,"Working","OW432"
"2023-10-02 01:00",11.616,"Working","OW432"
"2023-10-02 02:00",11.614,"Working","OW432"
"2023-10-02 03:00",11.61,"Working","OW432"
"2023-10-02 04:00",11.61,"Working","OW432"
"2023-10-02 05:00",11.613,"Working","OW432"
"2023-10-02 06:00",11.615,"Working","OW432"
"2023-10-02 07:00",11.615,"Working","OW432"
"2023-10-02 08:00",11.624,"Working","OW432"
"2023-10-02 09:00",11.63,"Working","OW432"
"2023-10-02 10:00",11.631,"Working","OW432"
"2023-10-02 11:00",11.633,"Working","OW432"
"2023-10-02 12:00",11.634,"Working","OW432"
"2023-10-02 13:00",11.629,"Working","OW432"
"2023-10-02 14:00",11.622,"Working","OW432"
"2023-10-02 15:00",11.617,"Working","OW432"
"2023-10-02 16:00",11.61,"Working","OW432"
"2023-10-02 17:00",11.608,"Working","OW432"
"2023-10-02 18:00",11.612,"Working","OW432"
"2023-10-02 19:00",11.616,"Working","OW432"
"2023-10-02 20:00",11.622,"Working","OW432"
"2023-10-02 21:00",11.625,"Working","OW432"
"2023-10-02 22:00",11.628,"Working","OW432"
"2023-10-02 23:00",11.63,"Working","OW432"
"2023-10-03 00:00",11.628,"Working","OW432"
"2023-10-03 01:00",11.624,"Working","OW432"
"2023-10-03 02:00",11.619,"Working","OW432"
"2023-10-03 03:00",11.61,"Working","OW432"
"2023-10-03 04:00",11.61,"Working","OW432"
"2023-10-03 05:00",11.61,"Working","OW432"
"2023-10-03 06:00",11.608,"Working","OW432"
"2023-10-03 07:00",11.611,"Working","OW432"
"2023-10-03 08:00",11.617,"Working","OW432"
"2023-10-03 09:00",11.614,"Working","OW432"
"2023-10-03 10:00",11.617,"Working","OW432"
"2023-10-03 11:00",11.617,"Working","OW432"
"2023-10-03 12:00",11.609,"Working","OW432"
"2023-10-03 13:00",11.604,"Working","OW432"
"2023-10-03 14:00",11.592,"Working","OW432"
"2023-10-03 15:00",11.581,"Working","OW432"
"2023-10-03 16:00",11.577,"Working","OW432"
"2023-10-03 17:00",11.569,"Working","OW432"
"2023-10-03 18:00",11.569,"Working","OW432"
"2023-10-03 19:00",11.563,"Working","OW432"
"2023-10-03 20:00",11.568,"Working","OW432"
"2023-10-03 21:00",11.567,"Working","OW432"
"2023-10-03 22:00",11.567,"Working","OW432"
"2023-10-03 23:00",11.569,"Working","OW432"
"2023-10-04 00:00",11.565,"Working","OW432"
"2023-10-04 01:00",11.562,"Working","OW432"
"2023-10-04 02:00",11.555,"Working","OW432"
"2023-10-04 03:00",11.548,"Working","OW432"
"2023-10-04 04:00",11.546,"Working","OW432"
"2023-10-04 05:00",11.544,"Working","OW432"
"2023-10-04 06:00",11.542,"Working","OW432"
"2023-10-04 07:00",11.542,"Working","OW432"
"2023-10-04 08:00",11.546,"Working","OW432"
"2023-10-04 09:00",11.545,"Working","OW432"
"2023-10-04 10:00",11.55,"Working","OW432"
"2023-10-04 11:00",11.549,"Working","OW432"
"2023-10-04 12:00",11.548,"Working","OW432"
"2023-10-04 13:00",11.543,"Working","OW432"
"2023-10-04 14:00",11.542,"Working","OW432"
"2023-10-04 15:00",11.547,"Working","OW432"
"2023-10-04 16:00",11.544,"Working","OW432"
"2023-10-04 17:00",11.544,"Working","OW432"
"2023-10-04 18:00",11.541,"Working","OW432"
"2023-10-04 19:00",11.54,"Working","OW432"
"2023-10-04 20:00",11.536,"Working","OW432"
"2023-10-04 21:00",11.537,"Working","OW432"
"2023-10-04 22:00",11.54,"Working","OW432"
"2023-10-04 23:00",11.537,"Working","OW432"
"2023-10-05 00:00",11.538,"Working","OW432"
"2023-10-05 01:00",11.535,"Working","OW432"
"2023-10-05 02:00",11.534,"Working","OW432"
"2023-10-05 03:00",11.526,"Working","OW432"
"2023-10-05 04:00",11.523,"Working","OW432"
"2023-10-05 05:00",11.521,"Working","OW432"
"2023-10-05 06:00",11.519,"Working","OW432"
"2023-10-05 07:00",11.519,"Working","OW432"
"2023-10-05 08:00",11.524,"Working","OW432"
"2023-10-05 09:00",11.525,"Working","OW432"
"2023-10-05 10:00",11.532,"Working","OW432"
"2023-10-05 11:00",11.533,"Working","OW432"
"2023-10-05 12:00",11.533,"Working","OW432"
"2023-10-05 13:00",11.534,"Working","OW432"
"2023-10-05 14:00",11.532,"Working","OW432"
"2023-10-05 15:00",11.529,"Working","OW432"
"2023-10-05 16:00",11.525,"Working","OW432"
"2023-10-05 17:00",11.523,"Working","OW432"
"2023-10-05 18:00",11.53,"Working","OW432"
"2023-10-05 19:00",11.529,"Working","OW432"
"2023-10-05 20:00",11.53,"Working","OW432"
"2023-10-05 21:00",11.535,"Working","OW432"
"2023-10-05 22:00",11.537,"Working","OW432"